When you browse on this site, cookies collect data to enhance your experience and personalize the content and advertising you see.
Visit our Privacy Policy to learn more. By continuing to use the site, you agree to this use of cookies and data.
  • In Hungary
  • List of Countries
  • For 7 days
  • Water Temperature
  • Weather Map
  • News
  • Weather Widgets
  • user-avatar
    Login

    Hourly Weather Torremaggiore

    Today, 30 March, Monday

    Time Temperature Precipitation Wind Pressure Humidity
    00:00 +9°C° 0 mm 1 mps 746 mmHg 88%
    01:00 +9°C° 0 mm 1 mps 746 mmHg 88%
    02:00 +8°C° 0 mm 1 mps 746 mmHg 88%
    03:00 +8°C° 0 mm 1 mps 746 mmHg 88%
    04:00 +8°C° 0 mm 1 mps 745 mmHg 87%
    05:00 +9°C° 0 mm 1 mps 745 mmHg 86%
    06:00 +10°C° 0 mm 1 mps 745 mmHg 85%
    07:00 +10°C° 0 mm 1 mps 746 mmHg 84%
    08:00 +12°C° 0 mm 1 mps 746 mmHg 78%
    09:00 +14°C° 0 mm 1 mps 746 mmHg 72%
    10:00 +16°C° 0 mm 1 mps 746 mmHg 67%
    11:00 +16°C° 0.1 mm 1 mps 746 mmHg 64%
    12:00 +17°C° 0.1 mm 2 mps 746 mmHg 62%
    13:00 +17°C° 0.1 mm 2 mps 746 mmHg 60%
    14:00 +17°C° 0.1 mm 2 mps 746 mmHg 63%
    15:00 +16°C° 0.1 mm 2 mps 746 mmHg 66%
    16:00 +16°C° 0.1 mm 3 mps 745 mmHg 70%
    17:00 +14°C° 0 mm 2 mps 745 mmHg 76%
    18:00 +12°C° 0 mm 2 mps 746 mmHg 82%
    19:00 +10°C° 0 mm 1 mps 746 mmHg 88%
    20:00 +9°C° 0 mm 2 mps 746 mmHg 88%
    21:00 +9°C° 0 mm 2 mps 747 mmHg 89%
    22:00 +9°C° 0 mm 3 mps 747 mmHg 89%
    23:00 +9°C° 0.1 mm 3 mps 747 mmHg 89%

    Tomorrow, 31 March, Tuesday

    Time Temperature Precipitation Wind Pressure Humidity
    00:00 +9°C° 0.1 mm 3 mps 747 mmHg 88%
    01:00 +8°C° 0.1 mm 4 mps 747 mmHg 88%
    02:00 +8°C° 0 mm 4 mps 748 mmHg 87%
    03:00 +8°C° 0 mm 4 mps 748 mmHg 86%
    04:00 +8°C° 0 mm 4 mps 748 mmHg 86%
    05:00 +8°C° 0 mm 4 mps 748 mmHg 85%
    06:00 +8°C° 0 mm 5 mps 748 mmHg 84%
    07:00 +7°C° 0 mm 5 mps 748 mmHg 82%
    08:00 +8°C° 0 mm 5 mps 749 mmHg 81%
    09:00 +8°C° 0 mm 5 mps 749 mmHg 80%
    10:00 +9°C° 0 mm 5 mps 749 mmHg 79%
    11:00 +8°C° 0 mm 5 mps 749 mmHg 79%
    12:00 +8°C° 0 mm 5 mps 749 mmHg 79%
    13:00 +7°C° 0 mm 5 mps 749 mmHg 79%
    14:00 +7°C° 0.1 mm 5 mps 749 mmHg 81%
    15:00 +7°C° 0.1 mm 5 mps 749 mmHg 83%
    16:00 +6°C° 0.1 mm 5 mps 749 mmHg 84%
    17:00 +6°C° 0.6 mm 5 mps 749 mmHg 87%
    18:00 +5°C° 0.6 mm 5 mps 749 mmHg 90%
    19:00 +3°C° 0.6 mm 5 mps 749 mmHg 93%
    20:00 +4°C° 0.4 mm 4 mps 749 mmHg 91%
    21:00 +4°C° 0.4 mm 4 mps 750 mmHg 89%
    22:00 +4°C° 0.4 mm 4 mps 750 mmHg 87%
    23:00 +3°C° 0 mm 5 mps 750 mmHg 85%

    Day after tomorrow, 1 April, Wednesday

    Time Temperature Precipitation Wind Pressure Humidity
    00:00 +2°C° 0 mm 5 mps 750 mmHg 84%
    01:00 +2°C° 0 mm 6 mps 750 mmHg 83%
    02:00 +2°C° 0 mm 6 mps 750 mmHg 80%
    03:00 +2°C° 0 mm 6 mps 750 mmHg 78%
    04:00 +1°C° 0 mm 6 mps 750 mmHg 76%
    05:00 +2°C° 0 mm 6 mps 750 mmHg 75%
    06:00 +2°C° 0 mm 6 mps 750 mmHg 74%
    07:00 +2°C° 0 mm 6 mps 750 mmHg 72%
    08:00 +3°C° 0 mm 7 mps 750 mmHg 64%
    09:00 +3°C° 0 mm 9 mps 750 mmHg 56%
    10:00 +5°C° 0 mm 10 mps 750 mmHg 48%
    11:00 +6°C° 0 mm 10 mps 750 mmHg 46%
    12:00 +6°C° 0 mm 10 mps 750 mmHg 44%
    13:00 +6°C° 0 mm 10 mps 750 mmHg 42%
    14:00 +6°C° 0 mm 10 mps 750 mmHg 43%
    15:00 +6°C° 0 mm 9 mps 750 mmHg 45%
    16:00 +6°C° 0 mm 9 mps 750 mmHg 47%
    17:00 +4°C° 0 mm 8 mps 750 mmHg 50%
    18:00 +3°C° 0 mm 6 mps 750 mmHg 54%
    19:00 +2°C° 0 mm 5 mps 750 mmHg 57%
    20:00 +2°C° 0 mm 5 mps 750 mmHg 57%
    21:00 +1°C° 0 mm 5 mps 750 mmHg 57%
    22:00 +1°C° 0 mm 5 mps 751 mmHg 57%
    23:00 0°C° 0 mm 4 mps 750 mmHg 58%

    2 April, Thursday

    Time Temperature Precipitation Wind Pressure Humidity
    00:00 0°C° 0 mm 4 mps 750 mmHg 59%
    01:00 +1°C° 0 mm 3 mps 750 mmHg 59%
    02:00 0°C° 0 mm 3 mps 750 mmHg 59%
    03:00 0°C° 0 mm 3 mps 750 mmHg 58%
    04:00 0°C° 0 mm 3 mps 749 mmHg 57%
    05:00 +2°C° 0 mm 2 mps 749 mmHg 57%
    06:00 +3°C° 0 mm 2 mps 749 mmHg 57%
    07:00 +4°C° 0 mm 2 mps 749 mmHg 57%
    08:00 +6°C° 0 mm 2 mps 749 mmHg 56%
    09:00 +8°C° 0 mm 2 mps 749 mmHg 56%
    10:00 +9°C° 0 mm 2 mps 749 mmHg 55%
    11:00 +10°C° 0 mm 2 mps 749 mmHg 53%
    12:00 +12°C° 0 mm 2 mps 749 mmHg 52%
    13:00 +13°C° 0 mm 2 mps 749 mmHg 51%
    14:00 +13°C° 0 mm 2 mps 749 mmHg 53%
    15:00 +12°C° 0 mm 2 mps 748 mmHg 56%
    16:00 +11°C° 0 mm 3 mps 748 mmHg 59%
    17:00 +9°C° 0 mm 2 mps 748 mmHg 66%
    18:00 +8°C° 0 mm 1 mps 748 mmHg 74%
    19:00 +6°C° 0 mm 1 mps 748 mmHg 81%
    20:00 +5°C° 0 mm 1 mps 748 mmHg 82%
    21:00 +5°C° 0 mm 1 mps 748 mmHg 83%
    22:00 +5°C° 0 mm 1 mps 749 mmHg 84%
    23:00 +4°C° 0 mm 1 mps 749 mmHg 85%

    3 April, Friday

    Time Temperature Precipitation Wind Pressure Humidity
    00:00 +4°C° 0 mm 1 mps 748 mmHg 85%
    01:00 +4°C° 0 mm 1 mps 748 mmHg 86%
    02:00 +4°C° 0 mm 1 mps 748 mmHg 85%
    03:00 +4°C° 0 mm 1 mps 748 mmHg 85%
    04:00 +4°C° 0 mm 1 mps 748 mmHg 85%
    05:00 +5°C° 0 mm 1 mps 748 mmHg 81%
    06:00 +6°C° 0 mm 1 mps 748 mmHg 78%
    07:00 +7°C° 0 mm 1 mps 748 mmHg 75%
    08:00 +9°C° 0 mm 1 mps 749 mmHg 70%
    09:00 +11°C° 0 mm 1 mps 749 mmHg 64%
    10:00 +13°C° 0 mm 1 mps 749 mmHg 59%
    11:00 +14°C° 0 mm 1 mps 749 mmHg 58%
    12:00 +14°C° 0 mm 2 mps 749 mmHg 56%
    13:00 +15°C° 0 mm 2 mps 749 mmHg 54%
    14:00 +15°C° 0 mm 2 mps 749 mmHg 57%
    15:00 +13°C° 0 mm 3 mps 749 mmHg 61%
    16:00 +13°C° 0 mm 4 mps 748 mmHg 64%
    17:00 +11°C° 0 mm 3 mps 749 mmHg 71%
    18:00 +9°C° 0 mm 2 mps 749 mmHg 79%
    19:00 +7°C° 0 mm 1 mps 749 mmHg 86%
    20:00 +7°C° 0 mm 1 mps 750 mmHg 86%
    21:00 +6°C° 0 mm 1 mps 750 mmHg 86%
    22:00 +6°C° 0 mm 1 mps 751 mmHg 86%
    23:00 +6°C° 0 mm 1 mps 751 mmHg 85%

    4 April, Saturday

    Time Temperature Precipitation Wind Pressure Humidity
    00:00 +6°C° 0 mm 1 mps 751 mmHg 84%
    01:00 +5°C° 0 mm 1 mps 751 mmHg 84%
    02:00 +5°C° 0 mm 1 mps 751 mmHg 83%
    03:00 +4°C° 0 mm 2 mps 751 mmHg 83%
    04:00 +4°C° 0 mm 2 mps 752 mmHg 83%
    05:00 +5°C° 0 mm 2 mps 752 mmHg 82%
    06:00 +6°C° 0 mm 2 mps 753 mmHg 81%
    07:00 +7°C° 0 mm 3 mps 753 mmHg 80%
    08:00 +8°C° 0 mm 4 mps 753 mmHg 76%
    09:00 +11°C° 0 mm 4 mps 753 mmHg 72%
    10:00 +13°C° 0 mm 5 mps 754 mmHg 68%
    11:00 +13°C° 0 mm 5 mps 754 mmHg 68%
    12:00 +13°C° 0 mm 6 mps 754 mmHg 68%
    13:00 +14°C° 0 mm 6 mps 755 mmHg 68%
    14:00 +14°C° 0 mm 5 mps 755 mmHg 68%
    15:00 +13°C° 0 mm 5 mps 755 mmHg 68%
    16:00 +13°C° 0 mm 5 mps 755 mmHg 68%
    17:00 +11°C° 0 mm 4 mps 755 mmHg 75%
    18:00 +10°C° 0 mm 3 mps 755 mmHg 82%
    19:00 +8°C° 0 mm 3 mps 755 mmHg 89%
    20:00 +7°C° 0 mm 3 mps 756 mmHg 89%
    21:00 +7°C° 0 mm 3 mps 756 mmHg 88%
    22:00 +5°C° 0 mm 3 mps 757 mmHg 88%
    23:00 +6°C° 0 mm 2 mps 757 mmHg 88%
    Show more